• In Deutschland
  • Länderverzeichnis
  • Für 7 Tage
  • Wassertemperatur
  • Satellitenkarten
  • Wetterkarte
  • Widgets
  • user-avatar
    Anmelden

    Stündliche Wetter Idar-Oberstein

    Heute, 21 Juni, Donnerstag

    Zeit Temperatur Niederschläge Wind Luftdruck Luftfeuchtigkeit
    00:00 +19°C° 0 mm 1 m/S 731 mmHg 88%
    01:00 +18°C° 0 mm 1 m/S 731 mmHg 90%
    02:00 +18°C° 0 mm 1 m/S 731 mmHg 91%
    03:00 +18°C° 0 mm 1 m/S 731 mmHg 93%
    04:00 +17°C° 0 mm 2 m/S 731 mmHg 90%
    05:00 +18°C° 0 mm 3 m/S 731 mmHg 88%
    06:00 +19°C° 0 mm 3 m/S 731 mmHg 83%
    07:00 +19°C° 0 mm 4 m/S 731 mmHg 80%
    08:00 +20°C° 0 mm 5 m/S 731 mmHg 76%
    09:00 +20°C° 0 mm 6 m/S 731 mmHg 72%
    10:00 +20°C° 0 mm 6 m/S 732 mmHg 69%
    11:00 +20°C° 0 mm 6 m/S 732 mmHg 66%
    12:00 +20°C° 0 mm 6 m/S 732 mmHg 63%
    13:00 +19°C° 0 mm 6 m/S 732 mmHg 59%
    14:00 +19°C° 0 mm 6 m/S 733 mmHg 56%
    15:00 +19°C° 0 mm 6 m/S 733 mmHg 53%
    16:00 +17°C° 0 mm 5 m/S 733 mmHg 56%
    17:00 +16°C° 0 mm 5 m/S 733 mmHg 59%
    18:00 +14°C° 0 mm 4 m/S 734 mmHg 63%
    19:00 +13°C° 0 mm 4 m/S 734 mmHg 66%
    20:00 +11°C° 0 mm 3 m/S 735 mmHg 70%
    21:00 +9°C° 0 mm 3 m/S 736 mmHg 74%
    22:00 +8°C° 0 mm 2 m/S 736 mmHg 78%
    23:00 +8°C° 0 mm 2 m/S 736 mmHg 82%

    Morgen, 22 Juni, Freitag

    Zeit Temperatur Niederschläge Wind Luftdruck Luftfeuchtigkeit
    00:00 +7°C° 0 mm 2 m/S 736 mmHg 86%
    01:00 +6°C° 0 mm 2 m/S 736 mmHg 88%
    02:00 +6°C° 0 mm 2 m/S 736 mmHg 90%
    03:00 +5°C° 0 mm 2 m/S 736 mmHg 91%
    04:00 +7°C° 0 mm 3 m/S 737 mmHg 86%
    05:00 +8°C° 0 mm 3 m/S 737 mmHg 80%
    06:00 +8°C° 0 mm 4 m/S 737 mmHg 75%
    07:00 +10°C° 0 mm 4 m/S 737 mmHg 72%
    08:00 +11°C° 0 mm 4 m/S 737 mmHg 70%
    09:00 +12°C° 0 mm 5 m/S 737 mmHg 67%
    10:00 +13°C° 0 mm 5 m/S 737 mmHg 66%
    11:00 +13°C° 0 mm 5 m/S 737 mmHg 64%
    12:00 +14°C° 0 mm 5 m/S 737 mmHg 62%
    13:00 +14°C° 0 mm 5 m/S 737 mmHg 62%
    14:00 +14°C° 0 mm 5 m/S 737 mmHg 62%
    15:00 +15°C° 0 mm 5 m/S 737 mmHg 62%
    16:00 +14°C° 0 mm 4 m/S 737 mmHg 65%
    17:00 +14°C° 0 mm 3 m/S 737 mmHg 68%
    18:00 +13°C° 0 mm 3 m/S 737 mmHg 72%
    19:00 +12°C° 0 mm 3 m/S 737 mmHg 77%
    20:00 +10°C° 0 mm 2 m/S 737 mmHg 83%
    21:00 +8°C° 0 mm 2 m/S 738 mmHg 89%
    22:00 +8°C° 0 mm 2 m/S 738 mmHg 90%
    23:00 +8°C° 0 mm 1 m/S 738 mmHg 92%

    übermorgen, 23 Juni, Samstag

    Zeit Temperatur Niederschläge Wind Luftdruck Luftfeuchtigkeit
    00:00 +8°C° 0 mm 1 m/S 738 mmHg 93%
    01:00 +7°C° 0 mm 1 m/S 738 mmHg 94%
    02:00 +7°C° 0 mm 1 m/S 738 mmHg 94%
    03:00 +6°C° 0 mm 1 m/S 737 mmHg 95%
    04:00 +7°C° 0 mm 1 m/S 738 mmHg 90%
    05:00 +9°C° 0 mm 1 m/S 738 mmHg 86%
    06:00 +9°C° 0 mm 2 m/S 738 mmHg 81%
    07:00 +12°C° 0 mm 2 m/S 738 mmHg 75%
    08:00 +13°C° 0 mm 2 m/S 738 mmHg 69%
    09:00 +15°C° 0 mm 2 m/S 738 mmHg 62%
    10:00 +16°C° 0 mm 3 m/S 738 mmHg 60%
    11:00 +17°C° 0 mm 3 m/S 738 mmHg 57%
    12:00 +18°C° 0 mm 3 m/S 737 mmHg 55%
    13:00 +18°C° 0 mm 3 m/S 737 mmHg 57%
    14:00 +18°C° 0 mm 3 m/S 737 mmHg 59%
    15:00 +18°C° 0 mm 3 m/S 736 mmHg 61%
    16:00 +17°C° 0 mm 3 m/S 736 mmHg 66%
    17:00 +16°C° 0 mm 2 m/S 736 mmHg 71%
    18:00 +16°C° 0 mm 2 m/S 736 mmHg 76%
    19:00 +15°C° 0,1 mm 1 m/S 736 mmHg 79%
    20:00 +14°C° 0,1 mm 1 m/S 736 mmHg 83%
    21:00 +13°C° 0,1 mm 1 m/S 736 mmHg 86%
    22:00 +12°C° 0 mm 1 m/S 736 mmHg 88%
    23:00 +11°C° 0 mm 1 m/S 736 mmHg 90%

    24 Juni, Sonntag

    Zeit Temperatur Niederschläge Wind Luftdruck Luftfeuchtigkeit
    00:00 +11°C° 0 mm 1 m/S 735 mmHg 92%
    01:00 +10°C° 0 mm 1 m/S 735 mmHg 93%
    02:00 +10°C° 0 mm 1 m/S 735 mmHg 94%
    03:00 +9°C° 0 mm 1 m/S 735 mmHg 95%
    04:00 +10°C° 0 mm 1 m/S 735 mmHg 93%
    05:00 +10°C° 0 mm 2 m/S 735 mmHg 91%
    06:00 +12°C° 0 mm 2 m/S 735 mmHg 88%
    07:00 +13°C° 0 mm 2 m/S 736 mmHg 80%
    08:00 +15°C° 0 mm 2 m/S 736 mmHg 71%
    09:00 +16°C° 0 mm 2 m/S 736 mmHg 62%
    10:00 +17°C° 0 mm 3 m/S 736 mmHg 61%
    11:00 +18°C° 0 mm 3 m/S 735 mmHg 60%
    12:00 +18°C° 0 mm 3 m/S 735 mmHg 59%
    13:00 +18°C° 0 mm 3 m/S 735 mmHg 60%
    14:00 +18°C° 0 mm 3 m/S 735 mmHg 61%
    15:00 +18°C° 0 mm 3 m/S 735 mmHg 62%
    16:00 +18°C° 0 mm 3 m/S 735 mmHg 66%
    17:00 +17°C° 0 mm 3 m/S 735 mmHg 70%
    18:00 +17°C° 0 mm 3 m/S 735 mmHg 73%
    19:00 +15°C° 0 mm 2 m/S 735 mmHg 78%
    20:00 +13°C° 0 mm 2 m/S 735 mmHg 83%
    21:00 +12°C° 0 mm 2 m/S 735 mmHg 88%
    22:00 +10°C° 0 mm 2 m/S 735 mmHg 90%
    23:00 +10°C° 0 mm 2 m/S 735 mmHg 92%

    25 Juni, Montag

    Zeit Temperatur Niederschläge Wind Luftdruck Luftfeuchtigkeit
    00:00 +9°C° 0 mm 2 m/S 735 mmHg 94%
    01:00 +9°C° 0 mm 2 m/S 735 mmHg 95%
    02:00 +9°C° 0 mm 2 m/S 735 mmHg 95%
    03:00 +9°C° 0 mm 2 m/S 735 mmHg 96%
    04:00 +10°C° 0 mm 2 m/S 735 mmHg 93%
    05:00 +12°C° 0 mm 2 m/S 735 mmHg 90%
    06:00 +13°C° 0 mm 2 m/S 735 mmHg 87%
    07:00 +14°C° 0 mm 2 m/S 735 mmHg 81%
    08:00 +16°C° 0 mm 3 m/S 736 mmHg 74%
    09:00 +17°C° 0 mm 3 m/S 736 mmHg 68%
    10:00 +18°C° 0 mm 3 m/S 736 mmHg 66%
    11:00 +18°C° 0 mm 3 m/S 735 mmHg 63%
    12:00 +19°C° 0 mm 3 m/S 735 mmHg 61%
    13:00 +19°C° 0 mm 3 m/S 735 mmHg 60%
    14:00 +20°C° 0 mm 3 m/S 735 mmHg 59%
    15:00 +21°C° 0 mm 3 m/S 735 mmHg 58%
    16:00 +20°C° 0 mm 3 m/S 735 mmHg 62%
    17:00 +20°C° 0 mm 3 m/S 735 mmHg 66%
    18:00 +19°C° 0 mm 2 m/S 735 mmHg 70%
    19:00 +17°C° 0 mm 2 m/S 735 mmHg 74%
    20:00 +16°C° 0 mm 2 m/S 736 mmHg 79%
    21:00 +14°C° 0 mm 2 m/S 736 mmHg 83%
    22:00 +13°C° 0 mm 2 m/S 736 mmHg 86%
    23:00 +13°C° 0 mm 2 m/S 736 mmHg 88%

    26 Juni, Dienstag

    Zeit Temperatur Niederschläge Wind Luftdruck Luftfeuchtigkeit
    00:00 +12°C° 0 mm 2 m/S 736 mmHg 90%
    01:00 +12°C° 0 mm 2 m/S 735 mmHg 91%
    02:00 +12°C° 0 mm 2 m/S 735 mmHg 92%
    03:00 +10°C° 0 mm 2 m/S 735 mmHg 93%
    04:00 +13°C° 0 mm 2 m/S 736 mmHg 90%
    05:00 +14°C° 0 mm 2 m/S 736 mmHg 86%
    06:00 +15°C° 0 mm 2 m/S 736 mmHg 83%
    07:00 +17°C° 0 mm 2 m/S 736 mmHg 76%
    08:00 +19°C° 0 mm 3 m/S 736 mmHg 69%
    09:00 +21°C° 0 mm 3 m/S 736 mmHg 61%
    10:00 +21°C° 0 mm 3 m/S 736 mmHg 58%
    11:00 +22°C° 0 mm 3 m/S 736 mmHg 55%
    12:00 +24°C° 0 mm 3 m/S 736 mmHg 52%
    13:00 +24°C° 0 mm 3 m/S 736 mmHg 52%
    14:00 +25°C° 0 mm 3 m/S 735 mmHg 52%
    15:00 +25°C° 0 mm 3 m/S 735 mmHg 53%
    16:00 +24°C° 0 mm 3 m/S 735 mmHg 58%
    17:00 +23°C° 0 mm 2 m/S 735 mmHg 63%
    18:00 +23°C° 0 mm 2 m/S 735 mmHg 69%
    19:00 +20°C° 0 mm 2 m/S 735 mmHg 72%
    20:00 +18°C° 0 mm 2 m/S 735 mmHg 76%
    21:00 +16°C° 0 mm 2 m/S 735 mmHg 79%
    22:00 +16°C° 0 mm 2 m/S 735 mmHg 81%
    23:00 +15°C° 0 mm 2 m/S 735 mmHg 84%
    Mehr zeigen